Temp
42 43 42 37 32 37 35 38 32 30 29 30 32 32 32 33 35 34 32 31 30 30 30 31 33 33 34 36 38 41 41 41 42 44 43 42 41 40 39 39 40 40 41 39
33 42 41 32 33 38 37 35 33 35 29 34 36 36 33 34 36 35 34 33 31 31 31 31 34 35 37 37 37 39 39 38 41 42 41 40 39 39 39 38 38 38 38 38
35 43 40 32 31 34 37 41 40 36 35 37 35 34 31 32 35 33 33 33 30 30 31 32 33 36 35 37 37 36 35 36 38 40 40 40 41 39 37 36 36 35 35 36
37 38 26 32 45 45 41 41 43 39 37 39 37 35 34 34 34 33 34 35 34 32 32 33 35 36 36 36 37 35 33 34 36 37 37 38 37 38 37 37 35 35 34 34
34 36 31 33 39 40 39 35 41 39 39 39 38 38 31 34 35 35 36 38 40 40 37 37 36 37 36 35 35 34 32 32 33 35 35 35 35 35 36 36 35 34 34 34
37 31 28 33 40 44 44 32 41 41 39 39 39 30 32 33 32 36 41 41 41 42 42 41 41 40 37 35 34 33 34 33 33 34 33 33 34 34 36 36 34 36 34 33
35 34 33 37 39 40 29 31 41 43 43 41 35 33 32 34 32 38 41 41 43 43 41 41 43 43 38 39 35 36 39 39 36 34 34 34 34 35 34 34 34 34 33 34
37 33 29 39 35 31 37 41 42 41 41 37 34 32 31 30 30 37 41 41 43 41 40 41 42 42 39 38 43 44 43 41 40 40 38 38 36 35 34 34 33 33 33 34
36 32 36 35 36 40 41 39 40 41 41 39 33 29 29 29 31 37 41 42 42 41 40 40 40 40 38 39 43 44 43 42 42 41 42 41 38 36 34 34 33 32 32 31
35 34 35 35 36 38 38 38 42 43 41 40 34 34 33 35 37 39 41 40 41 40 38 36 38 38 37 39 42 43 41 41 41 41 41 42 40 38 35 30 30 30 28 28
32 34 35 34 35 36 36 39 41 43 42 41 41 39 40 39 39 39 39 39 39 37 36 36 36 35 36 37 38 38 39 39 38 39 39 39 39 35 34 29 28 27 26 27
34 37 36 33 34 36 34 36 39 39 38 40 41 38 39 38 38 38 37 38 37 36 35 34 34 32 32 33 35 34 35 35 36 36 37 37 36 36 28 28 27 27 26 25
37 38 34 33 35 35 34 38 40 39 39 37 39 39 38 36 35 33 37 35 34 33 33 32 30 27 27 28 30 30 30 33 34 34 34 33 32 32 30 33 30 28 27 27
41 38 32 34 33 39 41 39 39 39 39 38 37 37 35 33 33 31 30 31 32 32 30 29 27 23 23 24 25 26 29 30 30 31 31 30 30 29 30 28 28 29 30 28
41 43 40 41 41 39 40 39 36 35 35 35 36 34 32 30 29 29 31 31 32 30 27 25 23 22 23 24 24 26 29 30 29 30 30 30 30 30 30 29 29 29 29 29
43 41 40 39 38 38 38 38 36 34 34 34 32 32 32 31 29 28 27 26 27 25 23 20 22 21 21 22 23 28 30 29 29 29 30 30 29 29 29 28 28 28 27 24
39 37 39 37 37 37 36 37 35 32 30 29 26 27 26 25 24 23 22 22 23 21 22 24 21 21 20 21 22 27 29 29 28 30 29 29 28 27 27 27 26 26 26 21
47 45 43 41 38 36 34 34 33 31 28 27 25 22 21 22 23 21 21 21 21 21 23 25 22 22 23 23 23 27 29 29 28 28 28 27 26 26 26 25 25 25 25 25
46 44 43 41 39 37 34 32 30 29 24 21 20 21 21 21 23 23 22 20 20 22 25 24 24 24 27 25 24 28 28 27 27 27 26 25 24 25 24 23 23 23 23 24
42 42 41 39 38 34 29 26 23 21 21 22 20 20 22 21 21 20 21 21 25 28 27 27 26 27 28 27 25 27 27 25 25 25 24 23 22 22 22 22 22 22 22 22
32 32 29 27 25 25 24 23 21 20 20 21 23 22 22 23 23 21 22 27 28 26 27 25 27 28 29 27 26 27 26 24 23 23 22 22 21 21 21 21 21 21 20 20
29 25 23 22 22 22 23 25 24 21 20 20 18 19 20 22 24 24 24 26 30 28 28 29 30 28 26 21 26 25 25 24 24 23 22 21 21 20 19 20 19 19 19 20
27 25 24 23 23 24 25 24 22 23 21 21 21 22 25 29 29 27 26 29 30 27 27 28 27 25 22 22 23 23 23 22 22 22 21 21 21 20 20 20 19 19 19 19
27 27 26 28 26 25 24 24 26 26 24 26 25 24 26 28 29 32 32 29 27 23 25 26 24 23 21 22 22 22 22 22 21 21 21 21 21 21 21 20 20 20 19 19
27 27 27 26 28 30 31 30 31 31 29 31 30 29 28 30 26 27 26 26 25 24 24 24 22 20 21 21 21 20 20 20 20 20 20 19 19 18 19 20 20 20 20 20
29 31 31 32 35 35 35 34 34 33 33 30 31 29 29 28 27 26 26 24 24 22 22 21 20 19 19 18 17 17 17 18 17 17 17 17 17 18 18 18 19 19 19 20
33 32 33 33 36 36 36 34 32 30 29 28 27 27 27 26 25 23 22 21 20 19 19 19 18 17 16 15 15 15 14 15 14 13 13 13 14 15 15 15 15 17 18 18
MSLP
1012.69 1012.51 1013.00 1013.71 1014.40 1014.35 1014.33 1013.69 1013.99 1015.49 1017.13 1018.88 1020.10 1021.03 1021.64 1021.84 1021.60 1021.51 1021.35 1021.07 1020.85 1020.32 1019.76 1019.04 1017.91 1016.88 1015.87 1015.31 1015.15 1014.74 1013.95 1013.07 1011.23 1010.94 1010.81 1010.81 1011.56 1011.39 1010.42 1010.63 1010.79 1011.13 1011.21 1010.57
1013.44 1013.09 1013.45 1014.26 1014.91 1014.87 1014.97 1015.06 1015.41 1016.13 1017.91 1019.54 1020.49 1021.26 1021.86 1021.96 1021.81 1021.84 1021.84 1021.81 1021.65 1021.10 1020.35 1019.64 1019.19 1018.60 1017.68 1017.03 1016.29 1015.79 1014.52 1013.12 1012.45 1011.14 1011.70 1012.30 1012.17 1011.87 1011.89 1012.74 1012.65 1012.47 1012.00 1012.07
1012.55 1012.55 1013.13 1014.12 1014.74 1014.84 1015.22 1015.08 1015.17 1015.69 1017.87 1019.46 1020.37 1021.41 1022.32 1022.53 1022.53 1022.61 1022.45 1022.35 1022.34 1022.11 1021.56 1021.06 1020.29 1019.63 1019.00 1018.21 1017.65 1016.59 1015.65 1014.89 1013.62 1013.35 1013.55 1013.58 1014.63 1014.50 1014.03 1014.15 1014.34 1014.03 1013.88 1013.71
1012.65 1012.92 1013.53 1014.57 1014.53 1014.62 1014.83 1015.57 1015.87 1017.05 1018.27 1019.31 1020.57 1021.89 1022.67 1023.13 1023.15 1023.11 1022.93 1022.58 1022.38 1022.41 1022.11 1021.75 1021.17 1020.64 1020.18 1019.37 1018.51 1017.90 1017.19 1016.55 1016.09 1016.65 1016.90 1017.02 1016.35 1015.61 1015.65 1015.93 1015.79 1015.40 1015.31 1015.02
1012.59 1012.23 1014.17 1015.01 1014.91 1014.82 1014.72 1016.03 1016.61 1017.10 1018.43 1019.76 1020.87 1021.63 1022.79 1023.60 1023.69 1023.43 1023.13 1022.72 1022.24 1022.03 1022.03 1021.86 1021.63 1021.29 1020.83 1020.40 1020.23 1020.10 1019.96 1019.99 1018.97 1019.15 1018.51 1017.83 1017.04 1016.93 1016.81 1016.92 1016.51 1016.52 1016.35 1016.09
1012.79 1012.89 1013.39 1014.65 1015.45 1015.89 1015.70 1016.00 1017.03 1017.46 1018.32 1019.59 1020.81 1021.58 1022.87 1023.98 1024.41 1023.69 1023.03 1022.73 1022.37 1022.23 1022.12 1021.77 1021.44 1021.51 1021.28 1021.09 1020.94 1020.77 1020.66 1020.28 1020.39 1020.20 1019.43 1019.00 1018.77 1018.94 1018.61 1018.01 1018.07 1017.76 1017.73 1017.79
1013.11 1013.40 1014.58 1016.19 1016.83 1017.03 1016.85 1017.17 1017.46 1017.75 1018.29 1019.24 1021.00 1022.83 1023.89 1024.33 1024.63 1023.94 1023.35 1023.01 1022.66 1022.54 1022.34 1022.22 1021.99 1021.70 1021.59 1021.08 1020.54 1020.61 1020.47 1020.35 1020.25 1020.14 1019.85 1019.82 1019.78 1019.50 1019.23 1018.90 1018.63 1018.37 1018.16 1018.06
1013.38 1014.30 1015.64 1017.51 1018.07 1017.86 1017.57 1017.83 1018.30 1018.75 1019.59 1020.73 1022.24 1023.65 1024.56 1025.07 1025.14 1024.20 1023.46 1023.32 1023.10 1023.02 1023.11 1023.15 1022.88 1022.53 1022.34 1021.88 1021.44 1021.17 1020.89 1020.68 1020.62 1020.41 1020.43 1020.53 1020.48 1020.20 1019.87 1019.46 1019.17 1018.96 1018.69 1018.41
1014.89 1016.25 1017.81 1018.80 1018.64 1018.77 1018.95 1019.18 1019.32 1019.63 1020.37 1021.51 1022.75 1024.03 1024.84 1025.22 1025.23 1024.45 1024.01 1023.82 1023.83 1023.88 1023.99 1024.15 1024.11 1023.94 1023.58 1023.22 1022.37 1021.92 1021.54 1021.29 1021.03 1021.09 1020.68 1020.57 1020.53 1020.49 1020.63 1020.48 1020.42 1020.21 1019.91 1019.53
1016.05 1017.63 1018.60 1019.55 1019.94 1020.07 1020.21 1020.35 1020.39 1020.59 1021.13 1022.00 1022.90 1023.83 1024.47 1024.58 1024.54 1024.40 1024.47 1024.44 1024.49 1024.56 1024.66 1024.78 1024.86 1024.83 1024.69 1024.21 1023.39 1022.62 1022.18 1021.98 1021.82 1021.35 1021.20 1021.01 1021.10 1021.20 1021.55 1022.29 1021.88 1021.43 1021.40 1020.98
1017.09 1018.38 1019.39 1020.37 1020.86 1021.12 1021.30 1021.41 1021.26 1021.43 1021.71 1022.16 1022.66 1023.27 1023.77 1024.29 1024.67 1024.94 1025.08 1025.24 1025.45 1025.54 1025.67 1025.81 1025.97 1026.04 1025.91 1025.50 1024.81 1024.05 1023.41 1023.14 1022.98 1022.46 1022.25 1022.13 1022.10 1022.75 1022.93 1023.81 1023.83 1023.58 1023.23 1022.49
1015.91 1017.69 1018.95 1020.42 1021.51 1021.89 1022.09 1022.29 1022.33 1022.52 1022.67 1022.83 1023.25 1023.85 1024.44 1024.97 1025.37 1025.65 1025.95 1026.07 1026.21 1026.50 1026.68 1026.93 1027.10 1027.27 1027.29 1026.80 1026.07 1025.50 1024.63 1024.35 1023.92 1023.45 1023.15 1023.07 1023.14 1023.11 1024.15 1024.24 1024.51 1024.33 1023.96 1023.78
1017.36 1018.63 1019.63 1021.01 1021.92 1022.58 1022.73 1022.67 1022.84 1023.15 1023.41 1023.81 1024.28 1024.65 1025.24 1025.88 1026.52 1027.00 1026.80 1027.07 1027.29 1027.62 1027.87 1028.09 1028.34 1028.67 1028.73 1028.25 1027.66 1027.00 1026.31 1025.60 1025.20 1024.58 1024.37 1024.27 1024.08 1023.91 1023.79 1023.54 1023.50 1023.72 1023.75 1023.51
1018.45 1019.23 1020.48 1021.33 1021.87 1022.37 1022.57 1023.19 1023.62 1023.99 1024.37 1024.76 1025.26 1025.78 1026.35 1026.94 1027.46 1027.82 1028.29 1028.40 1028.54 1028.64 1028.88 1029.12 1029.27 1029.48 1029.43 1029.02 1028.42 1027.80 1027.01 1026.29 1026.10 1025.50 1025.15 1024.89 1024.61 1024.43 1024.15 1023.69 1023.12 1022.84 1022.95 1023.19
1018.74 1019.03 1019.87 1020.84 1021.65 1022.43 1023.12 1023.64 1024.08 1024.65 1025.16 1025.70 1026.28 1026.77 1027.28 1027.83 1028.41 1028.82 1029.01 1029.22 1029.25 1029.49 1029.81 1030.04 1030.14 1030.25 1030.11 1029.63 1028.94 1028.07 1027.26 1026.77 1026.77 1026.19 1025.63 1025.39 1024.95 1024.58 1024.19 1023.81 1023.52 1023.21 1022.97 1023.09
1018.69 1019.54 1020.24 1020.91 1021.71 1022.52 1023.12 1023.67 1024.27 1025.11 1025.87 1026.51 1027.06 1027.61 1028.11 1028.81 1029.29 1029.75 1030.18 1030.39 1030.17 1030.40 1030.79 1030.99 1030.87 1030.95 1030.77 1030.22 1029.45 1028.15 1027.53 1027.25 1027.05 1026.62 1025.95 1025.51 1025.25 1024.94 1024.56 1024.27 1023.99 1023.72 1023.55 1024.01
1018.56 1019.44 1020.27 1021.07 1021.92 1022.70 1023.37 1024.14 1025.08 1026.05 1026.88 1027.67 1028.51 1029.08 1029.49 1029.93 1030.24 1030.56 1030.85 1031.16 1031.17 1031.25 1031.09 1030.74 1030.91 1031.02 1031.02 1030.47 1029.87 1028.68 1027.93 1027.43 1027.22 1026.51 1026.15 1025.96 1025.61 1025.36 1025.03 1024.65 1024.38 1024.07 1023.95 1024.65
1018.40 1019.31 1020.27 1021.18 1022.09 1023.05 1024.10 1025.04 1026.03 1026.97 1027.81 1028.63 1029.39 1029.94 1030.18 1030.34 1030.43 1030.84 1031.09 1031.15 1031.15 1030.94 1030.77 1030.69 1030.87 1030.83 1030.53 1030.35 1030.01 1028.95 1028.12 1027.73 1027.30 1026.84 1026.47 1026.25 1026.13 1025.87 1025.35 1025.06 1024.79 1024.49 1024.31 1024.29
1019.15 1019.91 1020.72 1021.73 1022.78 1023.83 1024.88 1025.89 1026.86 1027.73 1028.83 1029.57 1030.00 1030.25 1030.53 1030.77 1030.79 1030.87 1031.05 1030.97 1030.76 1030.32 1030.00 1030.57 1030.58 1030.48 1029.99 1030.07 1030.18 1029.02 1028.32 1027.99 1027.60 1027.11 1026.97 1026.77 1026.48 1026.13 1025.85 1025.56 1025.19 1024.87 1024.63 1024.37
1020.27 1021.08 1021.94 1022.85 1023.69 1024.83 1025.97 1027.15 1028.11 1028.91 1029.56 1029.93 1030.36 1030.57 1030.67 1030.76 1030.99 1031.00 1030.92 1030.58 1030.17 1029.91 1030.16 1030.09 1030.18 1029.92 1029.46 1029.40 1029.69 1029.17 1028.39 1028.25 1027.87 1027.52 1027.23 1027.16 1026.79 1026.49 1026.18 1025.79 1025.54 1025.15 1024.83 1024.51
1021.91 1022.71 1023.64 1024.54 1025.48 1026.47 1027.23 1027.92 1028.58 1029.25 1029.85 1030.19 1030.21 1030.48 1030.57 1030.61 1030.75 1030.90 1030.68 1029.68 1029.68 1030.17 1030.15 1030.00 1029.76 1029.41 1028.93 1029.25 1029.39 1028.73 1028.38 1028.17 1027.83 1027.59 1027.35 1027.01 1026.79 1026.51 1026.25 1025.97 1025.66 1025.39 1025.12 1024.85
1023.29 1024.12 1024.94 1025.67 1026.33 1027.13 1027.82 1028.17 1028.73 1029.43 1029.89 1030.28 1030.54 1030.62 1030.66 1030.43 1030.12 1030.11 1030.07 1029.98 1029.75 1029.87 1029.91 1029.41 1028.98 1028.85 1029.17 1029.77 1029.19 1028.77 1028.25 1027.88 1027.59 1027.39 1027.12 1026.89 1026.58 1026.39 1026.17 1025.93 1025.63 1025.39 1025.12 1024.88
1024.05 1024.77 1025.45 1026.10 1026.62 1027.30 1027.94 1028.45 1029.01 1029.33 1029.71 1030.01 1030.26 1030.41 1030.17 1029.81 1029.67 1029.41 1029.33 1029.63 1029.83 1029.91 1030.02 1029.31 1029.21 1029.27 1029.63 1029.55 1029.03 1028.52 1028.07 1027.72 1027.43 1027.13 1026.81 1026.51 1026.18 1025.90 1025.69 1025.54 1025.43 1025.27 1024.99 1024.73
1024.51 1025.14 1025.78 1026.28 1026.95 1027.34 1027.71 1028.33 1028.65 1029.00 1029.36 1029.55 1029.86 1030.25 1030.14 1029.55 1029.31 1029.13 1029.32 1029.68 1029.91 1030.27 1029.91 1029.47 1029.47 1029.55 1029.65 1029.19 1028.68 1028.17 1027.81 1027.53 1027.27 1026.94 1026.57 1026.31 1025.99 1025.65 1025.02 1024.68 1024.59 1024.58 1024.57 1024.48
1024.74 1025.32 1025.82 1026.22 1026.32 1026.53 1026.87 1027.54 1027.87 1028.10 1028.65 1028.65 1028.91 1029.46 1029.81 1029.70 1029.90 1029.83 1030.07 1030.11 1030.16 1030.12 1029.95 1029.61 1029.81 1029.77 1029.49 1029.20 1028.79 1028.45 1028.09 1027.74 1027.34 1027.04 1026.77 1026.34 1025.89 1025.67 1025.34 1024.79 1024.30 1023.71 1023.61 1023.71
1024.61 1024.87 1025.31 1025.55 1025.45 1025.74 1026.15 1026.79 1026.71 1027.29 1027.73 1028.14 1028.49 1029.14 1029.58 1029.89 1030.01 1030.19 1030.15 1030.31 1030.31 1030.41 1030.23 1030.15 1030.06 1030.08 1029.90 1029.78 1029.71 1029.27 1028.76 1028.36 1027.98 1027.61 1027.29 1026.76 1026.34 1025.91 1025.33 1024.82 1024.32 1023.78 1023.23 1022.80
1024.35 1024.63 1024.99 1025.29 1025.53 1025.81 1026.16 1026.58 1027.01 1027.46 1028.33 1028.73 1028.84 1029.23 1029.70 1030.06 1030.31 1030.58 1030.76 1030.77 1030.88 1030.88 1030.82 1030.69 1030.57 1030.48 1030.47 1030.43 1030.09 1029.77 1029.49 1028.99 1028.73 1028.53 1028.23 1027.71 1027.11 1026.45 1025.92 1025.29 1024.83 1023.93 1023.38 1023.07
Wind_Speed
11 3 3 3 2 6 7 8 4 7 6 6 8 9 11 11 11 14 16 19 18 17 17 18 19 19 18 19 17 16 18 16 19 19 21 20 18 17 18 18 17 16 15 16
6 13 11 3 2 6 2 6 8 10 7 4 4 6 9 11 13 15 16 17 18 19 20 19 20 19 18 17 18 18 19 20 19 21 20 18 18 20 20 17 16 16 17 16
5 7 6 10 7 5 6 4 3 2 7 6 5 7 9 10 12 12 14 14 15 16 16 15 16 17 19 18 18 19 19 19 21 22 21 21 19 15 16 17 15 16 17 16
5 4 6 6 8 7 9 5 7 10 9 6 7 7 8 9 10 10 11 12 12 9 10 12 14 14 15 17 19 20 20 21 21 19 18 16 16 16 16 13 14 14 15 15
5 7 6 6 9 6 4 5 2 6 9 8 7 6 10 10 9 9 9 10 11 11 9 9 10 13 15 15 16 15 14 14 16 16 16 16 17 16 14 13 13 13 14 16
5 7 5 7 5 2 1 6 4 5 7 10 8 5 5 7 8 9 9 9 10 12 13 14 14 14 14 11 10 12 11 11 11 11 13 14 13 12 10 11 10 9 10 12
9 9 7 4 3 3 7 6 7 5 7 9 6 5 7 5 6 6 8 10 10 12 13 15 15 15 16 16 14 9 12 13 10 11 11 11 11 10 10 8 9 10 10 9
6 7 10 5 4 4 8 11 9 10 11 13 13 9 7 6 5 6 8 10 11 11 12 14 15 14 15 16 15 14 13 13 13 12 8 8 10 10 12 12 11 12 11 10
6 5 6 4 7 9 8 10 9 11 12 12 11 8 6 5 4 5 7 8 9 10 11 12 13 14 14 15 14 13 13 14 13 14 12 12 11 11 11 12 11 11 10 10
7 5 7 7 7 9 9 9 9 10 11 11 11 9 7 6 5 6 8 9 9 10 12 12 13 14 15 15 16 14 14 14 14 13 14 13 10 11 11 11 11 10 11 10
5 7 9 7 7 8 10 8 9 8 9 9 9 8 7 7 8 8 8 8 9 10 10 12 12 13 14 15 15 14 13 13 13 11 12 12 10 9 9 9 10 10 9 9
1 13 2 12 8 8 10 8 8 9 9 8 8 9 7 7 7 7 7 8 8 10 10 11 12 13 14 15 15 14 12 11 10 10 10 10 10 7 10 8 7 10 13 11
4 10 13 12 10 9 8 8 8 8 8 9 8 8 9 8 8 6 8 8 9 9 10 10 11 12 13 13 13 12 11 10 9 9 9 9 9 9 9 5 3 8 12 13
15 16 13 12 7 11 10 10 9 9 8 8 9 8 8 8 7 8 7 8 8 9 10 10 11 11 12 12 11 10 10 10 9 9 8 8 8 8 8 8 9 8 9 12
12 5 12 12 13 12 11 10 10 9 9 9 8 8 8 7 6 6 6 5 2 5 7 8 9 10 12 12 11 11 8 8 8 8 8 8 8 8 8 9 9 9 8 9
11 14 15 15 14 12 10 9 9 9 9 8 8 7 7 6 6 5 6 7 7 5 6 5 7 8 9 10 11 9 8 9 9 8 8 8 8 8 8 8 9 8 8 6
16 16 14 13 12 11 9 7 9 9 8 8 8 6 6 5 5 4 3 3 2 3 3 4 5 6 7 8 11 8 7 7 10 8 8 8 8 8 9 8 8 8 8 5
9 12 11 12 12 11 10 10 10 10 9 9 7 6 5 2 4 2 1 3 4 5 5 4 3 5 5 6 9 8 7 7 8 8 8 8 9 9 9 9 9 8 7 5
9 11 10 12 11 11 12 11 11 10 9 8 7 6 5 3 1 2 3 4 6 8 2 3 3 7 6 6 8 9 7 8 9 8 8 9 9 9 9 9 9 10 9 7
10 10 12 12 12 12 12 10 11 9 7 7 6 5 4 3 1 2 4 8 8 5 6 6 6 8 6 5 6 9 7 8 9 8 8 8 8 9 9 10 9 9 9 8
11 11 12 11 11 10 9 9 9 9 7 6 5 4 2 2 1 3 7 6 5 4 6 7 7 7 7 4 7 9 7 8 8 8 8 8 8 8 9 9 9 9 8 8
11 11 11 11 10 11 9 8 8 8 7 5 3 2 1 6 8 8 9 4 5 6 8 8 7 7 6 6 8 10 10 10 9 9 9 8 8 8 9 9 9 8 9 8
10 11 11 10 10 10 9 8 7 7 6 5 4 4 4 5 4 4 5 1 6 8 8 8 9 8 6 7 9 10 11 11 10 10 10 10 9 9 8 9 8 8 9 8
11 11 10 10 10 10 9 8 7 7 4 4 4 2 5 4 4 3 4 7 8 8 9 8 9 10 10 9 10 10 10 10 11 10 11 13 10 11 11 10 8 8 8 8
11 11 10 10 9 7 8 9 6 6 6 6 4 6 3 3 4 5 5 5 7 9 8 11 12 11 9 10 10 11 11 11 10 10 11 11 9 10 11 11 12 10 8 7
11 8 8 9 6 6 5 6 4 4 4 3 3 3 2 2 3 5 5 7 7 10 8 8 8 9 9 9 11 12 11 12 12 11 12 12 12 12 11 11 11 10 11 8
8 8 7 6 4 4 4 3 3 3 2 1 3 3 2 3 4 4 6 7 7 8 8 9 9 10 9 10 10 11 11 11 12 11 11 12 12 12 11 12 12 11 10 12
Wind_Direction
274 271 185 46 330 356 354 316 327 107 96 43 31 16 17 6 14 13 16 12 10 4 7 11 14 13 14 22 18 25 30 28 35 42 44 38 38 34 38 39 37 34 32 35
259 230 232 209 206 204 98 83 98 126 98 89 69 54 31 21 18 16 16 14 8 8 11 11 16 18 15 24 23 19 22 24 27 34 35 36 34 33 36 34 33 31 32 33
262 184 193 216 176 143 143 41 226 238 103 148 80 48 35 21 23 19 14 15 15 14 13 7 7 16 24 23 25 23 24 25 27 29 29 31 29 34 35 34 29 32 30 31
279 172 235 90 159 169 126 94 89 106 133 128 102 86 58 31 25 21 17 15 25 24 16 15 17 18 20 26 29 27 25 24 30 27 31 29 31 32 35 32 34 33 31 29
260 236 102 167 200 194 224 113 83 142 149 149 148 153 77 36 18 20 22 18 21 28 33 30 34 27 27 22 28 30 33 29 36 29 32 31 32 27 28 27 26 30 26 26
269 253 274 73 118 130 176 193 141 149 168 182 178 253 76 35 22 1 29 23 25 30 28 28 29 35 29 32 34 36 31 39 35 25 28 27 30 30 26 31 31 27 36 31
236 261 103 84 152 127 212 98 131 128 163 157 153 52 93 56 31 348 26 33 29 34 32 27 22 30 26 21 28 32 31 27 35 28 31 27 21 24 20 23 27 26 26 31
229 255 231 33 144 247 106 116 123 106 93 102 111 105 91 74 27 19 33 36 32 39 35 30 23 22 27 19 18 18 22 29 32 28 35 32 31 24 21 16 22 19 15 18
4 40 73 29 63 100 108 118 118 114 118 119 111 106 107 92 57 35 44 46 36 42 43 37 33 24 23 13 9 17 21 20 21 25 25 27 28 28 26 19 15 16 12 12
181 123 110 89 74 91 104 109 115 110 117 124 121 121 126 133 108 71 52 40 37 41 39 35 29 25 19 10 5 8 16 21 8 22 6 18 26 23 33 17 11 15 10 6
90 127 118 105 94 96 98 110 104 101 106 116 121 112 105 91 74 61 54 56 44 42 37 32 28 23 16 9 5 4 14 9 17 11 13 8 33 21 32 46 28 9 7 2
129 157 86 130 113 116 115 117 116 116 110 97 104 105 101 89 74 66 61 49 49 42 35 29 27 23 11 5 5 4 1 9 7 0 3 7 3 10 93 92 79 54 40 19
133 108 102 117 120 124 130 138 117 113 111 108 102 102 94 87 74 70 60 49 44 39 31 27 25 19 7 1 359 0 350 0 347 359 359 357 354 354 347 2 141 75 41 23
121 121 115 140 143 160 131 116 113 104 104 103 100 94 94 91 77 58 46 35 31 34 28 20 17 14 1 356 351 340 342 355 352 344 347 349 344 340 337 340 340 345 18 18
151 116 135 146 141 137 135 137 133 127 121 116 116 115 112 103 85 64 45 17 79 55 34 21 12 6 357 352 349 332 339 351 345 333 335 333 332 333 332 334 335 334 340 10
127 127 138 147 148 150 150 150 140 134 131 125 110 101 95 100 91 71 41 22 6 22 7 359 353 356 351 348 341 329 341 344 339 331 325 333 332 330 326 329 326 333 338 13
144 151 155 152 156 155 153 143 138 140 131 121 122 125 126 121 121 101 55 360 334 287 312 321 349 350 335 348 335 329 330 334 333 321 331 328 328 331 322 324 320 323 334 64
147 149 157 158 156 149 143 140 137 143 144 138 130 127 126 149 72 109 5 330 312 281 264 281 315 319 306 341 334 317 331 336 331 328 330 334 339 313 321 323 320 319 320 332
134 137 142 145 147 147 143 141 139 129 124 136 141 137 130 133 107 22 330 309 286 270 89 207 284 291 321 353 333 311 338 335 328 327 337 331 321 329 325 320 321 318 315 315
125 129 131 132 129 135 127 119 130 129 133 136 130 145 149 144 194 303 299 284 286 320 342 311 305 298 295 298 326 304 333 329 322 325 325 321 318 323 311 314 316 313 313 316
102 102 106 113 110 112 125 132 130 134 137 141 156 143 153 60 268 268 264 292 71 57 327 291 271 292 287 340 321 308 318 308 306 313 311 310 309 309 313 312 312 311 308 312
132 129 127 128 128 123 129 133 124 134 144 149 129 114 244 251 218 224 226 293 334 355 340 317 311 352 333 331 302 305 299 301 302 302 300 299 301 302 303 306 306 305 306 303
131 134 133 132 136 133 134 133 145 148 154 157 166 203 245 331 320 319 326 133 336 12 321 317 342 325 309 291 290 293 295 296 295 296 294 292 290 288 286 294 296 297 296 296
136 138 136 137 131 141 149 155 167 157 168 176 187 199 291 324 328 324 2 353 348 356 311 329 355 341 329 302 294 299 304 310 311 308 307 315 311 306 299 277 272 277 282 286
140 140 140 149 153 160 152 159 173 174 168 217 142 167 232 7 333 354 336 324 342 321 334 334 343 351 330 323 325 330 325 316 318 321 311 300 304 307 302 300 305 279 262 268
154 156 155 174 167 154 162 165 198 154 187 180 184 109 28 360 347 334 355 338 336 344 338 337 346 341 333 335 333 320 324 324 322 323 323 320 318 310 305 302 303 305 299 261
162 155 155 171 174 163 162 149 182 157 132 35 303 84 17 356 0 333 353 346 346 338 339 337 334 342 335 338 322 331 326 323 330 338 329 319 317 319 324 330 332 320 308 309